Wind_Speed
28 26 24 23 22 22 22 23 26 28 28 27 27 27 26 24 24 25 27 28 29 30 30 31 32 33 35 36 36 37 37 37 38 39 39 39 40 42 43 43 43 43
29 27 25 23 23 21 20 20 21 24 25 25 25 26 26 25 25 26 27 28 29 30 30 30 31 33 36 37 38 38 38 38 38 38 37 37 38 39 40 40 40 41
30 29 27 26 24 22 20 19 19 19 21 22 23 25 26 27 27 28 29 30 31 32 32 32 33 34 37 38 40 40 40 39 38 37 38 37 37 38 38 37 37 39
28 29 29 28 27 25 22 20 19 19 20 21 23 24 25 26 28 29 31 32 33 34 33 34 34 35 36 38 40 41 42 41 40 38 40 40 38 37 37 37 37 37
26 27 28 28 27 26 25 23 22 21 21 21 23 24 25 25 26 28 29 31 33 34 34 34 35 35 36 38 40 42 42 44 43 41 42 42 40 38 37 38 39 39
25 26 26 26 26 25 25 24 23 22 22 22 22 24 25 26 27 28 29 30 31 33 33 34 35 36 36 37 40 41 42 44 44 43 44 43 42 41 39 39 40 40
25 26 26 25 25 24 25 24 23 22 22 22 22 23 25 26 28 29 29 30 30 32 32 33 34 36 37 38 39 40 40 42 44 44 45 43 43 44 42 40 40 41
26 26 25 24 23 23 24 24 23 21 21 21 21 23 25 26 27 28 28 29 29 30 31 32 32 34 36 37 38 38 38 40 43 45 46 44 43 45 44 42 42 43
27 25 23 23 23 22 22 22 22 21 21 21 22 23 24 25 26 26 26 27 28 28 29 30 30 31 33 34 35 35 36 38 40 43 45 45 44 45 44 43 43 44
26 24 23 22 21 20 19 19 19 21 21 21 21 21 21 22 22 23 24 25 26 27 28 29 29 29 30 30 31 33 33 35 36 38 41 43 44 44 44 43 43 43
25 23 22 21 19 17 16 17 18 20 20 21 20 19 18 18 18 20 21 22 25 27 28 28 28 28 28 27 27 30 31 32 33 35 36 38 40 42 43 43 44 44
23 22 21 19 16 15 16 17 18 19 20 21 20 19 18 18 18 20 21 23 26 28 29 28 26 26 26 25 24 26 28 29 30 32 34 35 37 39 40 42 43 44
23 21 20 18 16 15 16 17 18 19 20 20 20 20 20 21 21 21 22 23 25 27 28 28 26 24 24 24 24 24 26 28 30 31 33 34 35 37 39 41 42 44
22 21 19 17 16 15 16 18 18 19 20 20 21 21 21 22 22 22 22 22 23 24 26 25 23 22 23 23 23 23 24 26 30 31 32 34 35 37 39 41 43 44
22 20 18 17 16 15 15 17 17 18 19 21 22 22 22 21 21 22 22 22 21 21 22 20 17 17 20 22 23 24 24 24 27 29 30 32 34 36 38 41 43 45
21 20 19 17 16 15 15 16 17 17 18 20 23 24 22 18 19 22 24 23 21 20 19 18 17 18 16 19 25 29 28 25 24 26 29 32 34 34 35 38 39 41
21 20 19 18 17 17 17 17 18 18 20 21 23 24 22 20 21 23 24 24 22 20 20 20 20 21 18 17 22 28 30 28 25 26 28 31 34 35 35 36 37 37
21 21 20 19 18 17 17 18 18 19 21 22 22 23 23 21 22 23 24 25 24 21 23 24 23 22 21 19 19 23 26 28 27 27 28 29 29 30 33 35 36 36
22 22 21 20 19 18 17 17 18 19 20 21 21 22 22 22 22 23 25 26 25 24 25 28 28 26 23 21 20 20 22 24 26 28 28 27 27 28 29 30 31 33
21 22 22 21 21 19 17 17 17 19 20 20 21 21 22 22 22 24 25 26 26 27 27 30 31 27 25 24 22 21 21 22 24 26 26 25 24 26 27 28 29 31
21 21 22 22 22 20 18 17 17 18 20 21 21 21 21 21 22 23 25 25 26 27 27 30 31 29 28 26 22 21 21 22 22 22 22 22 21 22 25 28 30 31
21 22 22 22 23 21 19 17 17 18 19 21 21 20 20 21 21 23 24 24 24 26 27 29 29 31 33 30 24 21 19 19 20 19 17 18 18 18 21 24 26 28
23 23 23 23 23 22 20 18 16 17 19 21 21 20 20 22 22 23 24 23 23 24 26 28 28 30 35 35 27 21 18 17 16 13 12 12 13 16 19 19 20 23
23 23 22 22 23 23 21 18 17 17 18 20 21 21 21 23 23 23 24 24 23 23 24 27 28 29 33 35 31 23 16 17 20 11 7 9 12 15 16 15 16 18
24 22 21 21 22 22 21 19 18 17 18 19 21 21 22 23 23 24 24 24 23 22 22 24 26 27 30 32 34 30 18 14 20 19 9 7 12 17 14 8 10 13
22 20 19 20 20 20 20 19 18 18 18 19 20 21 22 24 24 24 24 23 22 21 21 22 23 24 27 27 31 34 26 15 15 17 16 11 6 12 14 7 5 3
Wind_Direction
316 310 305 299 296 293 289 285 284 286 288 288 286 282 279 275 270 266 265 265 265 263 259 258 261 263 264 264 262 261 259 258 258 259 258 257 256 257 258 257 256 256
320 316 310 305 301 297 293 287 284 284 287 289 288 283 281 281 278 274 271 270 270 269 267 266 265 267 268 268 266 264 263 261 260 259 259 258 258 259 259 257 256 254
320 318 314 310 307 302 298 293 289 287 287 290 289 285 283 282 280 277 274 272 271 270 269 268 266 265 266 266 264 263 263 263 261 260 259 258 258 259 259 256 253 252
320 318 315 313 311 309 306 302 298 293 289 288 288 286 284 281 279 276 274 272 271 269 268 268 267 266 264 263 262 261 261 260 259 258 258 258 257 257 257 253 248 249
320 317 314 312 311 310 309 307 304 300 294 289 286 287 287 286 284 281 279 277 274 272 270 268 267 266 264 264 263 263 262 260 258 256 256 257 256 256 256 252 247 247
321 317 313 310 308 305 305 306 304 302 299 295 291 290 290 290 289 288 286 285 282 278 274 269 267 266 265 265 265 265 264 261 257 255 256 255 255 254 253 251 249 246
322 318 314 311 307 303 302 304 305 304 302 301 298 293 290 290 289 289 288 288 286 284 279 273 268 266 266 266 265 265 264 262 257 255 255 255 254 253 250 249 247 245
323 321 317 314 311 307 304 304 305 305 305 303 300 294 290 288 286 287 288 288 287 286 283 278 272 269 268 267 266 264 262 261 258 256 255 254 253 251 250 249 247 245
326 324 322 319 317 315 312 309 307 306 305 304 300 295 291 289 286 284 285 287 288 287 285 282 277 274 271 270 268 266 262 260 258 255 254 253 251 250 250 250 248 246
328 327 325 325 325 324 322 317 314 313 312 309 306 302 297 294 290 286 286 292 296 296 292 287 281 276 274 271 269 267 264 260 257 254 253 252 250 249 249 249 249 248
329 328 328 329 331 332 331 329 327 325 322 318 315 313 310 303 295 291 294 304 309 307 303 294 284 277 273 270 268 267 265 260 255 253 253 252 251 249 248 248 249 249
329 328 327 329 330 332 335 338 338 335 329 323 319 320 320 314 305 300 303 309 311 310 307 300 288 280 274 269 267 267 263 260 256 253 252 253 251 249 249 248 249 249
330 327 324 324 325 326 330 334 336 336 332 327 322 320 322 322 318 312 310 310 308 307 307 302 291 281 274 267 264 265 262 257 255 252 252 252 252 252 251 251 250 251
331 329 324 321 322 324 326 328 331 333 333 330 325 319 318 321 323 321 318 316 313 309 307 306 298 287 277 268 261 260 262 261 257 256 255 255 255 255 254 254 252 252
331 332 327 322 321 323 326 328 330 332 332 330 327 322 316 315 323 328 327 325 321 315 311 308 310 305 288 272 262 259 263 263 258 259 261 260 259 258 257 257 255 254
331 333 331 324 321 322 325 328 330 331 331 328 328 328 323 322 330 333 331 329 326 323 318 308 310 318 305 276 265 267 273 272 261 261 266 265 262 261 260 261 259 256
329 332 332 327 323 322 323 327 328 330 330 328 328 330 331 335 336 332 331 332 329 329 330 323 317 321 317 293 275 273 277 277 270 270 275 272 264 261 263 263 258 256
328 331 333 331 327 324 322 324 327 328 327 327 327 329 332 334 332 329 331 333 333 336 338 337 332 327 321 308 291 279 276 274 270 272 280 278 269 267 271 267 258 255
328 331 334 334 332 329 325 323 326 327 326 325 326 328 331 331 329 329 332 333 337 344 346 345 343 336 327 318 305 292 283 278 273 272 277 278 271 271 277 274 262 258
325 328 333 334 333 332 330 327 326 325 323 323 324 326 329 331 330 330 332 334 339 345 349 350 350 344 335 327 316 302 290 284 279 276 277 279 274 270 273 273 268 263
319 322 327 331 332 331 329 327 325 322 319 320 323 325 328 330 331 331 332 335 339 343 347 352 354 352 345 336 326 313 299 288 285 283 280 279 277 273 272 271 269 264
315 316 319 326 331 330 326 323 322 319 317 319 324 327 327 328 330 333 334 335 338 341 344 348 350 351 350 345 335 322 310 297 290 288 285 280 278 280 280 274 269 262
310 312 315 321 326 326 323 321 321 319 318 321 326 329 328 328 332 336 337 338 339 341 343 345 345 347 348 348 343 329 319 322 315 291 277 290 292 288 286 278 268 259
305 308 313 317 321 323 321 320 321 322 321 324 328 329 329 329 334 337 338 339 341 342 343 343 344 345 345 347 349 338 322 338 353 345 283 294 314 310 296 273 256 250
304 307 314 317 319 321 320 320 323 325 324 325 327 328 328 329 333 335 336 336 338 342 343 341 342 345 344 346 352 350 333 325 348 360 355 302 306 318 316 277 238 239
306 311 317 321 322 321 320 321 323 324 323 322 324 325 325 327 330 332 333 335 336 339 342 340 338 342 344 347 352 355 355 337 325 346 11 25 349 315 321 344 19 357
Height
3141 3139 3138 3136 3136 3135 3134 3133 3132 3130 3129 3128 3127 3126 3126 3126 3126 3126 3126 3126 3127 3127 3127 3128 3127 3126 3126 3126 3127 3127 3127 3127 3127 3127 3128 3128 3129 3130 3131 3132 3133 3134
3136 3135 3133 3132 3132 3131 3130 3130 3129 3127 3126 3125 3124 3123 3123 3123 3123 3123 3122 3122 3122 3122 3122 3123 3123 3122 3122 3122 3122 3122 3123 3123 3122 3122 3122 3123 3124 3124 3124 3126 3127 3128
3133 3131 3130 3129 3128 3127 3127 3126 3126 3124 3123 3122 3121 3120 3120 3119 3119 3118 3118 3118 3118 3117 3117 3117 3118 3118 3117 3116 3116 3117 3117 3117 3118 3118 3117 3117 3118 3118 3119 3120 3121 3122
3131 3129 3127 3125 3124 3123 3123 3123 3122 3122 3121 3119 3118 3117 3116 3116 3115 3114 3113 3113 3112 3112 3112 3112 3112 3112 3112 3111 3110 3111 3111 3112 3112 3113 3112 3112 3113 3113 3114 3115 3116 3117
3130 3128 3125 3123 3122 3120 3119 3119 3119 3118 3117 3117 3115 3114 3112 3111 3110 3109 3108 3107 3107 3106 3107 3106 3106 3105 3105 3105 3104 3104 3104 3105 3106 3107 3106 3106 3107 3108 3109 3109 3110 3111
3128 3126 3124 3122 3120 3118 3117 3116 3115 3115 3114 3113 3112 3110 3109 3107 3106 3104 3103 3102 3101 3101 3101 3101 3100 3099 3099 3099 3098 3097 3097 3098 3099 3100 3100 3100 3101 3102 3103 3103 3104 3106
3126 3124 3122 3120 3118 3116 3115 3114 3112 3111 3110 3109 3108 3107 3105 3104 3102 3100 3099 3098 3097 3095 3095 3095 3095 3094 3093 3093 3092 3091 3091 3091 3092 3093 3093 3093 3095 3096 3097 3098 3099 3100
3124 3122 3120 3118 3116 3115 3113 3111 3110 3109 3108 3106 3105 3103 3102 3100 3098 3097 3095 3094 3093 3092 3091 3090 3090 3089 3088 3087 3086 3086 3086 3086 3086 3086 3086 3087 3088 3089 3091 3092 3093 3094
3122 3120 3118 3116 3114 3113 3111 3109 3108 3106 3105 3103 3102 3100 3098 3096 3094 3093 3092 3091 3090 3089 3087 3086 3085 3084 3083 3081 3080 3080 3080 3080 3080 3081 3081 3081 3082 3083 3085 3086 3087 3089
3120 3118 3116 3114 3112 3111 3109 3107 3105 3104 3102 3100 3098 3096 3094 3093 3091 3090 3089 3088 3087 3085 3084 3082 3081 3079 3078 3076 3075 3074 3074 3075 3075 3075 3075 3076 3076 3077 3079 3081 3081 3083
3119 3117 3115 3113 3111 3109 3107 3106 3104 3102 3100 3098 3096 3094 3091 3090 3089 3087 3086 3085 3083 3081 3079 3078 3076 3074 3073 3072 3071 3070 3069 3069 3070 3070 3070 3070 3071 3072 3074 3075 3076 3077
3117 3115 3113 3111 3110 3108 3106 3104 3102 3100 3098 3096 3094 3092 3090 3088 3087 3085 3084 3082 3080 3078 3076 3074 3072 3070 3069 3067 3066 3065 3065 3065 3065 3065 3065 3065 3066 3067 3068 3069 3070 3072
3115 3113 3111 3110 3108 3107 3105 3103 3101 3098 3096 3094 3092 3090 3088 3087 3085 3083 3082 3079 3077 3075 3072 3070 3068 3067 3065 3063 3062 3061 3061 3061 3061 3061 3061 3061 3062 3063 3064 3065 3065 3066
3113 3111 3109 3108 3106 3105 3103 3101 3099 3097 3095 3093 3091 3089 3087 3085 3083 3081 3079 3077 3074 3072 3070 3067 3065 3064 3062 3060 3059 3058 3058 3058 3057 3057 3058 3058 3058 3058 3059 3059 3060 3060
3112 3110 3108 3106 3105 3103 3101 3099 3098 3096 3094 3092 3089 3087 3085 3083 3082 3080 3077 3075 3072 3070 3068 3065 3063 3061 3059 3058 3056 3055 3055 3054 3054 3054 3054 3054 3054 3054 3053 3053 3053 3054
3110 3108 3106 3104 3103 3101 3100 3098 3096 3094 3093 3091 3088 3086 3084 3082 3080 3078 3076 3073 3070 3068 3066 3063 3060 3057 3056 3055 3053 3051 3050 3049 3049 3050 3050 3050 3049 3048 3048 3047 3047 3048
3109 3107 3105 3103 3101 3100 3098 3096 3095 3093 3091 3089 3087 3085 3083 3081 3078 3077 3074 3072 3069 3066 3063 3061 3058 3055 3053 3052 3050 3048 3046 3045 3046 3046 3046 3045 3043 3043 3042 3042 3042 3042
3107 3105 3103 3101 3099 3098 3096 3094 3093 3092 3090 3088 3086 3084 3082 3080 3078 3075 3073 3071 3068 3065 3062 3059 3056 3054 3051 3050 3048 3046 3044 3043 3043 3043 3041 3040 3039 3038 3037 3036 3035 3035
3105 3103 3101 3099 3097 3096 3094 3093 3091 3090 3088 3086 3084 3082 3080 3079 3077 3074 3072 3069 3067 3064 3061 3058 3055 3051 3049 3047 3045 3043 3042 3040 3040 3038 3037 3036 3035 3034 3033 3031 3030 3030
3103 3101 3099 3097 3095 3094 3093 3091 3090 3088 3087 3085 3083 3081 3079 3077 3075 3073 3070 3068 3066 3063 3060 3057 3053 3050 3048 3045 3043 3041 3039 3037 3036 3034 3033 3031 3030 3029 3028 3026 3025 3025
3102 3100 3098 3096 3094 3092 3091 3089 3088 3087 3085 3083 3082 3080 3078 3076 3074 3071 3069 3067 3065 3062 3059 3056 3053 3050 3047 3044 3041 3038 3036 3034 3033 3031 3030 3028 3027 3025 3024 3022 3021 3020
3100 3098 3096 3094 3092 3090 3089 3087 3086 3085 3083 3081 3080 3079 3077 3075 3072 3070 3068 3066 3064 3061 3058 3056 3053 3050 3046 3043 3039 3036 3034 3032 3030 3028 3027 3025 3023 3022 3021 3019 3018 3017
3098 3096 3094 3092 3090 3088 3087 3086 3084 3083 3081 3080 3078 3077 3076 3074 3072 3069 3067 3065 3063 3060 3057 3055 3053 3050 3046 3042 3038 3035 3032 3030 3027 3025 3023 3022 3021 3019 3017 3015 3014 3014
3096 3095 3093 3091 3089 3087 3085 3084 3083 3081 3080 3078 3077 3075 3074 3072 3070 3068 3066 3064 3061 3059 3056 3054 3052 3049 3046 3042 3038 3034 3031 3029 3026 3023 3021 3020 3019 3017 3015 3013 3012 3012
3095 3093 3091 3089 3087 3085 3083 3082 3081 3080 3079 3077 3075 3074 3072 3071 3069 3067 3065 3063 3061 3058 3056 3054 3051 3049 3046 3042 3038 3034 3031 3029 3026 3022 3021 3019 3017 3016 3014 3013 3012 3012
3093 3091 3089 3088 3086 3084 3082 3080 3080 3079 3077 3076 3074 3072 3070 3069 3067 3066 3064 3062 3060 3058 3056 3053 3051 3049 3046 3043 3039 3034 3031 3029 3026 3023 3020 3018 3016 3016 3014 3013 3012 3012